Hourly Data Report for August 27, 2017

All times are specified in Local Standard Time (LST). Add 1 hour to adjust for Daylight Saving Time where and when it is observed.

ST. STEPHEN
NEW BRUNSWICK

45°12'36.600" N
67°15'10.300" W
26.10 m
8104935
71607
WSS

Download Data

Hourly Data (August 2017)
Hourly Data Report for August 27, 2017
Temp Definition
°C
Dew Point Temp Definition
°C
Rel Hum Definition
%
Wind Dir Definition
10's deg

Wind Spd Definition
km/h
Visibility Definition
km
Stn Press Definition
kPa
Hmdx Definition


Wind Chill Definition


Weather Definition


TIME
00:00 11.0 9.8 93 25 4   102.08     LegendNANA
01:00 9.7 8.8 94 28 3   102.10     LegendNANA
02:00 8.4 7.3 93 0 1   102.11     LegendNANA
03:00 7.5 6.7 95   0   102.12     LegendNANA
04:00 8.5 7.9 96 0 1   102.13     LegendNANA
05:00 9.6 8.8 95 26 4   102.13     LegendNANA
06:00 9.8 8.7 93 27 4   102.17     LegendNANA
07:00 10.2 9.2 93 0 1   102.22     LegendNANA
08:00 13.7 10.6 82 25 1   102.24     LegendNANA
09:00 18.0 12.4 70   0   102.23     LegendNANA
10:00 19.7 10.6 56 31 8   102.23     LegendNANA
11:00 20.5 9.5 50 36 8   102.21     LegendNANA
12:00 20.6 6.4 40 34 7   102.19     LegendNANA
13:00 21.9 6.2 36 36 6   102.18     LegendNANA
14:00 22.9 5.5 32 26 8   102.14     LegendNANA
15:00 22.0 5.9 35 32 4   102.11     LegendNANA
16:00 23.3 6.1 33 4 5   102.09     LegendNANA
17:00 22.6 5.2 32 32 4   102.09     LegendNANA
18:00 21.6 6.4 37 1 7   102.13     LegendNANA
19:00 17.7 11.3 66 10 5   102.17     LegendNANA
20:00 13.9 10.8 81   0   102.22     LegendNANA
21:00 11.5 9.9 90   0   102.25     LegendNANA
22:00 10.0 9.0 94   0   102.25     LegendNANA
23:00 9.3 8.5 95   0   102.26     LegendNANA

Notes on Data Quality.

Legend

  • E = Estimated
  • M = Missing
  • NA = Not Available
Date modified: